Change the Weather History Date:

Monday, June 30, 2014

  Actual Average (KAUS) Record (KAUS)
Temperature  
Mean Temperature 86 °F 82 °F  
Max Temperature 94 °F 94 °F 100 °F (1980)
Min Temperature 79 °F 71 °F 63 °F (1985)
Degree Days  
Heating Degree Days 0 0  
Month to date heating degree days 0  
Since 1 June heating degree days 0  
Since 1 July heating degree days 1903  
Cooling Degree Days 22 17  
Month to date cooling degree days 481  
Year to date cooling degree days 988  
Since 1 June cooling degree days 481  
Growing Degree Days 36 (Base 50)    
Moisture  
Dew Point 75 °F    
Average Humidity 75    
Maximum Humidity 94    
Minimum Humidity 51    
Precipitation  
Precipitation 0.00 in 0.16 in 1.56 in (2002)
Month to date precipitation 4.38  
Year to date precipitation 16.43  
Snow  
Snow 0.00 in - - ()
Month to date snowfall  
Since 1 June snowfall  
Since 1 July snowfall  
Snow Depth -    
Sea Level Pressure  
Sea Level Pressure 29.97 in    
Wind  
Wind Speed 9 mph (South)    
Max Wind Speed 17 mph    
Max Gust Speed 23 mph    
Visibility 7 miles    
Events      
T = Trace of Precipitation, MM = Missing Value Source: NWS Daily Summary

Daily Weather History Graph

Daily Weather History Graph

Search for Another Location

Airport or City:

Trip Planner

Search our weather history database for the weather conditions in past years. The results will help you decide how hot, cold, wet, or windy it might be!

Date:

Astronomy

Jun. 30, 2014 Rise Set
Actual Time 6:30 AM CDT 8:32 PM CDT
Civil Twilight 6:02 AM CDT 9:00 PM CDT
Nautical Twilight 5:29 AM CDT 9:33 PM CDT
Astronomical Twilight 4:54 AM CDT 10:08 PM CDT
Moon 9:29 AM CDT (6/30) 10:43 PM CDT (6/30)
Length of Visible Light 14h 57m
Length of Day
14h 02m
Waxing Crescent, 10% of the Moon is Illuminated
Jun 30
Waxing Crescent
Jul 5
First Quarter
Jul 12
Full
Jul 18
Last Quarter
Jul 26
New

Hourly Weather History & Observations

Time (CDT) Temp. Heat Index Dew Point Humidity Pressure Visibility Wind Dir Wind Speed Gust Speed Precip Events Conditions
12:15 AM 79.9 °F - 77.4 °F 92% 30.01 in 7.0 mi SSE 5.8 mph - N/A   Mostly Cloudy
12:35 AM 79.7 °F - 77.4 °F 93% 30.01 in 7.0 mi SSE 5.8 mph - N/A   Overcast
12:55 AM 79.9 °F - 77.5 °F 93% 30.01 in 5.0 mi South 5.8 mph - N/A   Overcast
1:15 AM 79.9 °F - 77.7 °F 93% 30.00 in 5.0 mi SSE 4.6 mph - N/A   Overcast
1:35 AM 79.9 °F - 77.7 °F 93% 30.00 in 5.0 mi SSE 8.1 mph - N/A   Overcast
1:55 AM 79.7 °F - 77.5 °F 93% 29.99 in 5.0 mi South 5.8 mph - N/A   Overcast
2:15 AM 79.0 °F - 77.2 °F 94% 29.99 in 5.0 mi SSE 5.8 mph - N/A   Overcast
2:35 AM 79.2 °F - 77.4 °F 94% 29.99 in 5.0 mi South 6.9 mph - N/A   Overcast
2:55 AM 79.7 °F - 77.4 °F 93% 29.99 in 7.0 mi South 6.9 mph - N/A   Overcast
3:15 AM 79.7 °F - 77.2 °F 92% 29.99 in 5.0 mi South 8.1 mph - N/A   Overcast
3:35 AM 79.9 °F - 77.4 °F 92% 29.99 in 7.0 mi South 8.1 mph - N/A   Mostly Cloudy
3:55 AM 79.9 °F - 77.2 °F 91% 29.99 in 7.0 mi South 8.1 mph - N/A   Mostly Cloudy
4:15 AM 79.7 °F - 77.2 °F 92% 29.99 in 5.0 mi South 6.9 mph - N/A   Mostly Cloudy
4:35 AM 80.1 °F 85.8 °F 77.0 °F 90% 29.99 in 7.0 mi South 5.8 mph - N/A   Mostly Cloudy
4:55 AM 79.9 °F - 77.0 °F 91% 29.99 in 7.0 mi South 9.2 mph - N/A   Mostly Cloudy
5:15 AM 79.7 °F - 77.2 °F 92% 29.99 in 7.0 mi South 8.1 mph - N/A   Mostly Cloudy
5:35 AM 79.7 °F - 77.0 °F 91% 30.00 in 7.0 mi South 8.1 mph - N/A   Mostly Cloudy
5:55 AM 79.3 °F - 77.0 °F 93% 30.00 in 7.0 mi South 5.8 mph - N/A   Mostly Cloudy
6:15 AM 79.5 °F - 77.0 °F 92% 30.00 in 7.0 mi South 8.1 mph - N/A   Overcast
6:35 AM 79.5 °F - 76.8 °F 91% 30.00 in 5.0 mi South 5.8 mph - N/A   Overcast
6:55 AM 79.7 °F - 77.0 °F 91% 30.01 in 5.0 mi South 9.2 mph - N/A   Overcast
7:15 AM 79.5 °F - 76.6 °F 91% 30.00 in 5.0 mi South 9.2 mph - N/A   Overcast
7:35 AM 79.5 °F - 76.8 °F 91% 30.01 in 5.0 mi South 10.4 mph - N/A   Overcast
7:55 AM 79.7 °F - 77.0 °F 91% 30.01 in 5.0 mi South 10.4 mph - N/A   Overcast
8:15 AM 80.2 °F 86.3 °F 77.0 °F 90% 30.02 in 5.0 mi South 10.4 mph 17.3 mph N/A   Mostly Cloudy
8:35 AM 80.8 °F 87.4 °F 76.8 °F 88% 30.02 in 5.0 mi South 11.5 mph 17.3 mph N/A   Mostly Cloudy
8:55 AM 81.7 °F 89.2 °F 76.8 °F 85% 30.02 in 5.0 mi South 10.4 mph - N/A   Haze
9:15 AM 82.9 °F 91.2 °F 76.1 °F 80% 30.02 in 5.0 mi SSW 9.2 mph 16.1 mph N/A   Haze
9:35 AM 84.6 °F 93.9 °F 76.3 °F 76% 30.02 in 7.0 mi South 15.0 mph 18.4 mph N/A   Mostly Cloudy
9:55 AM 84.6 °F 93.2 °F 75.4 °F 74% 30.01 in 5.0 mi South 11.5 mph 18.4 mph N/A   Haze
10:15 AM 85.1 °F 93.3 °F 74.8 °F 71% 30.01 in 7.0 mi SSW 12.7 mph - N/A   Scattered Clouds
10:35 AM 86.4 °F 94.6 °F 74.3 °F 67% 30.01 in 7.0 mi SSW 11.5 mph 18.4 mph N/A   Scattered Clouds
10:55 AM 87.6 °F 97.1 °F 74.8 °F 66% 30.01 in 7.0 mi South 12.7 mph 19.6 mph N/A   Scattered Clouds
11:15 AM 88.7 °F 98.2 °F 74.5 °F 63% 30.01 in 7.0 mi SSW 10.4 mph 20.7 mph N/A   Scattered Clouds
11:35 AM 89.1 °F 97.5 °F 73.8 °F 60% 30.01 in 7.0 mi South 13.8 mph 18.4 mph N/A   Clear
11:55 AM 89.6 °F 99.3 °F 74.3 °F 61% 30.00 in 7.0 mi South 15.0 mph 19.6 mph N/A   Clear
12:15 PM 90.5 °F 99.7 °F 73.9 °F 58% 30.00 in 7.0 mi South 10.4 mph 17.3 mph N/A   Clear
12:35 PM 90.9 °F 99.4 °F 73.4 °F 56% 29.99 in 7.0 mi South 12.7 mph 20.7 mph N/A   Clear
12:55 PM 91.8 °F 101.5 °F 74.1 °F 56% 29.99 in 7.0 mi SSE 12.7 mph 23.0 mph N/A   Clear
1:15 PM 92.5 °F 101.3 °F 73.2 °F 53% 29.98 in 7.0 mi SSE 13.8 mph 19.6 mph N/A   Clear
1:35 PM 93.2 °F 102.4 °F 73.2 °F 52% 29.98 in 7.0 mi South 15.0 mph 21.9 mph N/A   Clear
1:55 PM 93.4 °F 102.8 °F 73.2 °F 52% 29.97 in 7.0 mi South 17.3 mph 20.7 mph N/A   Clear
2:15 PM 93.7 °F 103.6 °F 73.9 °F 52% 29.96 in 7.0 mi SSE 15.0 mph 20.7 mph N/A   Clear
2:35 PM 93.7 °F 103.6 °F 73.6 °F 52% 29.96 in 7.0 mi SSE 15.0 mph 19.6 mph N/A   Clear
2:55 PM 94.5 °F 105.3 °F 74.1 °F 52% 29.95 in 7.0 mi South 11.5 mph 23.0 mph N/A   Clear
3:15 PM 94.1 °F 103.8 °F 73.6 °F 51% 29.94 in 7.0 mi SSE 17.3 mph 21.9 mph N/A   Clear
3:35 PM 93.9 °F 103.4 °F 73.4 °F 51% 29.94 in 7.0 mi South 15.0 mph 21.9 mph N/A   Clear
3:55 PM 94.3 °F 104.9 °F 73.9 °F 52% 29.93 in 7.0 mi South 15.0 mph 21.9 mph N/A   Clear
4:15 PM 94.1 °F 104.5 °F 73.9 °F 52% 29.93 in 10.0 mi South 13.8 mph 23.0 mph N/A   Clear
4:35 PM 93.9 °F 104.0 °F 73.9 °F 52% 29.93 in 7.0 mi SSE 12.7 mph 21.9 mph N/A   Clear
4:55 PM 93.4 °F 102.8 °F 73.6 °F 52% 29.92 in 7.0 mi South 16.1 mph 23.0 mph N/A   Clear
5:15 PM 92.5 °F 101.9 °F 73.6 °F 54% 29.92 in 7.0 mi South 15.0 mph 23.0 mph N/A   Clear
5:35 PM 92.5 °F 101.9 °F 73.6 °F 54% 29.92 in 7.0 mi South 13.8 mph 23.0 mph N/A   Clear
5:55 PM 92.3 °F 100.9 °F 72.9 °F 53% 29.92 in 7.0 mi South 17.3 mph 23.0 mph N/A   Clear
6:15 PM 91.6 °F 102.3 °F 75.0 °F 58% 29.91 in 10.0 mi SSE 15.0 mph 20.7 mph N/A   Scattered Clouds
6:35 PM 89.8 °F 100.3 °F 75.4 °F 62% 29.91 in 7.0 mi SSE 15.0 mph - N/A   Clear
6:55 PM 88.9 °F 98.6 °F 75.0 °F 63% 29.91 in 7.0 mi SSE 15.0 mph 23.0 mph N/A   Clear
7:15 PM 88.0 °F 98.0 °F 75.2 °F 66% 29.91 in 7.0 mi SSE 13.8 mph 19.6 mph N/A   Clear
7:35 PM 87.1 °F 96.3 °F 75.0 °F 67% 29.92 in 7.0 mi SSE 10.4 mph 18.4 mph N/A   Clear
7:55 PM 86.0 °F 94.6 °F 74.7 °F 69% 29.91 in 7.0 mi SSE 12.7 mph 19.6 mph N/A   Clear
8:15 PM 85.1 °F 92.9 °F 74.5 °F 70% 29.91 in 7.0 mi SSE 8.1 mph - N/A   Clear
8:35 PM 84.2 °F 91.9 °F 74.8 °F 73% 29.92 in 7.0 mi SSE 11.5 mph 17.3 mph N/A   Clear
8:55 PM 83.1 °F 90.4 °F 74.7 °F 76% 29.91 in 10.0 mi SSE 11.5 mph 16.1 mph N/A   Clear
9:15 PM 82.4 °F 89.0 °F 74.5 °F 77% 29.91 in 10.0 mi SSE 6.9 mph - N/A   Clear
9:35 PM 81.9 °F 88.2 °F 74.8 °F 79% 29.92 in 10.0 mi SSE 6.9 mph - N/A   Clear
9:55 PM 81.3 °F 87.6 °F 75.2 °F 82% 29.92 in 10.0 mi SSE 9.2 mph - N/A   Clear
10:15 PM 80.8 °F 86.7 °F 75.4 °F 84% 29.93 in 10.0 mi SSE 8.1 mph - N/A   Clear
10:35 PM 80.2 °F 85.7 °F 75.6 °F 86% 29.93 in 10.0 mi SSE 6.9 mph - N/A   Clear
11:15 PM 79.5 °F - 75.4 °F 87% 29.94 in 10.0 mi South 8.1 mph - N/A   Mostly Cloudy
11:35 PM 79.7 °F - 76.1 °F 89% 29.93 in 10.0 mi South 6.9 mph - N/A   Overcast
11:55 PM 79.7 °F - 76.1 °F 89% 29.93 in 10.0 mi South 6.9 mph - N/A   Overcast